TimeCDT,TemperatureF,Dew PointF,Humidity,Sea Level PressureIn,VisibilityMPH,Wind Direction,Wind SpeedMPH,Gust SpeedMPH,PrecipitationIn,Events,Conditions,WindDirDegrees,DateUTC
12:15 AM,38.5,34.3,85,30.21,10.0,West,5.8,-,N/A,,Clear,260,2012-10-06 05:15:00
12:35 AM,38.7,34.2,84,30.21,10.0,West,5.8,-,N/A,,Clear,270,2012-10-06 05:35:00
12:55 AM,38.7,34.0,83,30.21,10.0,West,5.8,-,N/A,,Clear,270,2012-10-06 05:55:00
1:15 AM,38.5,34.0,84,30.21,10.0,West,6.9,-,N/A,,Clear,270,2012-10-06 06:15:00
1:35 AM,39.2,33.8,81,30.21,10.0,West,6.9,-,N/A,,Clear,270,2012-10-06 06:35:00
1:55 AM,39.0,33.8,82,30.21,10.0,West,5.8,-,N/A,,Clear,280,2012-10-06 06:55:00
2:15 AM,39.0,33.8,82,30.21,10.0,WNW,9.2,-,N/A,,Clear,290,2012-10-06 07:15:00
2:35 AM,38.7,33.8,83,30.21,10.0,WNW,9.2,-,N/A,,Clear,290,2012-10-06 07:35:00
2:55 AM,38.8,33.3,80,30.21,10.0,WNW,6.9,-,N/A,,Clear,290,2012-10-06 07:55:00
3:15 AM,38.1,33.1,82,30.21,10.0,West,6.9,-,N/A,,Clear,280,2012-10-06 08:15:00
3:35 AM,37.8,32.9,83,30.21,10.0,WNW,5.8,-,N/A,,Clear,300,2012-10-06 08:35:00
3:55 AM,37.4,32.4,82,30.21,10.0,West,5.8,-,N/A,,Clear,280,2012-10-06 08:55:00
4:15 AM,37.4,32.0,81,30.21,10.0,WNW,6.9,-,N/A,,Clear,300,2012-10-06 09:15:00
4:35 AM,37.4,32.0,81,30.23,10.0,WNW,4.6,-,N/A,,Clear,300,2012-10-06 09:35:00
4:55 AM,37.4,32.0,81,30.24,10.0,WNW,6.9,-,N/A,,Clear,300,2012-10-06 09:55:00
5:15 AM,37.6,32.0,80,30.25,10.0,WNW,5.8,-,N/A,,Clear,300,2012-10-06 10:15:00
5:35 AM,38.1,32.0,79,30.25,10.0,WNW,4.6,-,N/A,,Clear,290,2012-10-06 10:35:00
5:55 AM,38.5,31.5,76,30.25,10.0,West,3.5,-,N/A,,Clear,270,2012-10-06 10:55:00
6:15 AM,38.1,32.0,79,30.25,10.0,West,3.5,-,N/A,,Clear,260,2012-10-06 11:15:00
6:35 AM,37.6,32.0,80,30.26,10.0,West,3.5,-,N/A,,Clear,270,2012-10-06 11:35:00
6:55 AM,37.6,32.0,80,30.26,10.0,West,3.5,-,N/A,,Clear,280,2012-10-06 11:55:00
7:15 AM,37.6,32.0,80,30.26,10.0,WNW,3.5,-,N/A,,Clear,300,2012-10-06 12:15:00
7:35 AM,37.8,32.0,80,30.26,10.0,WNW,3.5,-,N/A,,Clear,290,2012-10-06 12:35:00
7:55 AM,37.9,32.0,79,30.27,10.0,WNW,4.6,-,N/A,,Clear,290,2012-10-06 12:55:00
8:15 AM,38.5,32.0,78,30.27,10.0,NW,4.6,-,N/A,,Clear,310,2012-10-06 13:15:00
8:35 AM,39.2,32.0,75,30.26,10.0,NW,6.9,-,N/A,,Clear,320,2012-10-06 13:35:00
8:55 AM,40.1,31.6,72,30.27,10.0,NW,8.1,-,N/A,,Clear,320,2012-10-06 13:55:00
9:15 AM,41.4,31.5,68,30.27,10.0,NW,12.7,-,N/A,,Clear,320,2012-10-06 14:15:00
9:35 AM,42.8,31.5,64,30.26,10.0,NW,12.7,-,N/A,,Clear,320,2012-10-06 14:35:00
9:55 AM,42.8,31.1,63,30.27,10.0,NNW,10.4,-,N/A,,Clear,330,2012-10-06 14:55:00
10:15 AM,43.5,30.4,60,30.27,10.0,NW,13.8,-,N/A,,Clear,320,2012-10-06 15:15:00
10:35 AM,44.6,30.9,59,30.27,10.0,NW,15.0,19.6,N/A,,Clear,320,2012-10-06 15:35:00
10:55 AM,44.6,30.0,57,30.27,10.0,NNW,13.8,18.4,N/A,,Clear,330,2012-10-06 15:55:00
11:15 AM,45.0,29.5,55,30.27,10.0,NNW,13.8,19.6,N/A,,Clear,330,2012-10-06 16:15:00
11:35 AM,46.0,30.9,56,30.27,10.0,NW,10.4,-,N/A,,Clear,320,2012-10-06 16:35:00
11:55 AM,46.6,30.2,53,30.27,10.0,NW,12.7,16.1,N/A,,Clear,320,2012-10-06 16:55:00
12:15 PM,46.4,30.0,53,30.27,10.0,NW,15.0,-,N/A,,Clear,320,2012-10-06 17:15:00
12:35 PM,46.9,30.4,53,30.27,10.0,NNW,10.4,-,N/A,,Clear,340,2012-10-06 17:35:00
12:55 PM,46.9,29.8,51,30.27,10.0,NW,13.8,19.6,N/A,,Clear,320,2012-10-06 17:55:00
1:15 PM,46.8,30.6,53,30.26,10.0,NW,6.9,-,N/A,,Clear,320,2012-10-06 18:15:00
1:35 PM,47.3,30.2,52,30.25,10.0,NW,11.5,16.1,N/A,,Clear,310,2012-10-06 18:35:00
1:55 PM,47.1,29.3,50,30.25,10.0,WNW,10.4,-,N/A,,Clear,290,2012-10-06 18:55:00
2:15 PM,48.0,30.9,52,30.24,10.0,NW,12.7,16.1,N/A,,Clear,320,2012-10-06 19:15:00
2:35 PM,47.5,30.4,52,30.24,10.0,NW,9.2,17.3,N/A,,Clear,310,2012-10-06 19:35:00
2:55 PM,47.5,30.2,51,30.24,10.0,NW,11.5,16.1,N/A,,Clear,310,2012-10-06 19:55:00
3:15 PM,46.8,28.9,50,30.24,10.0,NW,11.5,17.3,N/A,,Clear,310,2012-10-06 20:15:00
3:35 PM,46.4,30.0,53,30.24,10.0,WNW,10.4,-,N/A,,Clear,300,2012-10-06 20:35:00
3:55 PM,46.4,30.4,54,30.24,10.0,NW,12.7,-,N/A,,Clear,310,2012-10-06 20:55:00
4:15 PM,45.9,30.2,54,30.24,10.0,NW,10.4,16.1,N/A,,Clear,320,2012-10-06 21:15:00
4:35 PM,45.9,30.4,55,30.24,10.0,NW,10.4,-,N/A,,Clear,310,2012-10-06 21:35:00
4:55 PM,45.7,30.2,55,30.24,10.0,NW,10.4,-,N/A,,Clear,310,2012-10-06 21:55:00
5:15 PM,45.3,30.2,56,30.24,10.0,NW,10.4,-,N/A,,Clear,320,2012-10-06 22:15:00
5:35 PM,45.0,30.6,57,30.24,10.0,NW,11.5,-,N/A,,Clear,320,2012-10-06 22:35:00
5:55 PM,44.4,31.3,60,30.24,10.0,NNW,8.1,-,N/A,,Clear,330,2012-10-06 22:55:00
6:15 PM,43.9,30.9,60,30.25,10.0,NNW,8.1,-,N/A,,Clear,330,2012-10-06 23:15:00
6:35 PM,43.0,31.1,63,30.25,10.0,NNW,6.9,-,N/A,,Clear,330,2012-10-06 23:35:00
6:55 PM,40.8,31.5,69,30.25,10.0,NW,3.5,-,N/A,,Clear,310,2012-10-06 23:55:00
7:15 PM,40.5,31.1,69,30.25,10.0,Calm,Calm,-,N/A,,Clear,0,2012-10-07 00:15:00
7:35 PM,41.0,31.1,68,30.25,10.0,Calm,Calm,-,N/A,,Clear,0,2012-10-07 00:35:00
7:55 PM,40.3,31.6,71,30.25,10.0,Calm,Calm,-,N/A,,Clear,0,2012-10-07 00:55:00
8:15 PM,39.7,33.3,78,30.25,10.0,Calm,Calm,-,N/A,,Clear,0,2012-10-07 01:15:00
8:35 PM,39.9,33.8,79,30.26,10.0,Calm,Calm,-,N/A,,Scattered Clouds,0,2012-10-07 01:35:00
8:55 PM,40.1,33.4,77,30.26,10.0,WSW,3.5,-,N/A,,Scattered Clouds,250,2012-10-07 01:55:00
9:15 PM,40.5,33.3,75,30.26,10.0,West,3.5,-,N/A,,Mostly Cloudy,260,2012-10-07 02:15:00
9:35 PM,40.3,33.4,77,30.26,10.0,Calm,Calm,-,N/A,,Mostly Cloudy,0,2012-10-07 02:35:00
9:55 PM,40.6,33.8,77,30.27,10.0,Calm,Calm,-,N/A,,Overcast,0,2012-10-07 02:55:00
10:15 PM,41.0,34.0,76,30.27,10.0,Calm,Calm,-,N/A,,Overcast,0,2012-10-07 03:15:00
10:35 PM,41.2,34.0,76,30.27,10.0,Calm,Calm,-,N/A,,Overcast,0,2012-10-07 03:35:00
10:55 PM,41.9,32.7,70,30.27,10.0,WNW,3.5,-,N/A,,Overcast,290,2012-10-07 03:55:00
11:15 PM,41.4,33.4,73,30.27,10.0,Calm,Calm,-,N/A,,Overcast,0,2012-10-07 04:15:00
11:35 PM,41.4,33.3,73,30.26,10.0,WNW,4.6,-,N/A,,Overcast,300,2012-10-07 04:35:00
11:55 PM,41.2,33.6,74,30.26,10.0,West,3.5,-,N/A,,Mostly Cloudy,280,2012-10-07 04:55:00